Voltar ao catálogo

STARLINK-4300

AtivoComunicaçõesVLEO
NORAD 53173·PAYLOAD·🇺🇸 United States

Lançado Jul 17, 2022 de Cape Canaveral Space Force Station

Loading…

Próximas Passagens (próximas 24 horas)

TLE

AtualizadoSource: CelesTrak SupGP

Época: Sep 14, 2026, 21:26 UTC

1 53173C 22083AT  26257.89354167 -.00029905  00000+0 -85563-3 0  2572
2 53173  53.1586 358.0100 0001214  81.4039 115.8014 15.35412602    19

Acompanhe STARLINK-4300 em tempo real com AllMySat

Download on the App Store